Weather History for KPSF - January, 2014

Change the Weather History Date:

Tuesday, January 7, 2014

  Actual Average Record
Temperature  
Mean Temperature 6 °F 20 °F  
Max Temperature 11 °F 29 °F 65 °F (1933)
Min Temperature 1 °F 12 °F -6 °F (2015)
Degree Days  
Heating Degree Days 59 45  
Month to date heating degree days 357 308  
Since 1 July heating degree days 3205 3146  
Cooling Degree Days 0 0  
Month to date cooling degree days 0 0  
Year to date cooling degree days 0 0  
Moisture  
Dew Point -10 °F    
Average Humidity 60    
Maximum Humidity 73    
Minimum Humidity 46    
Precipitation  
Precipitation T in 0.11 in 0.36 in (1962)
Month to date precipitation 1.33 0.83  
Year to date precipitation 1.33 0.83  
Sea Level Pressure  
Sea Level Pressure 29.95 in    
Wind  
Wind Speed 16 mph (West)    
Max Wind Speed 29 mph    
Max Gust Speed 37 mph    
Visibility 10 miles    
Events Snow    
T = Trace of Precipitation, MM = Missing Value Source: NWS Daily Summary

Daily Weather History Graph

Daily Weather History Graph

Search for Another Location

Airport or City:

Trip Planner

Search our weather history database for the weather conditions in past years. The results will help you decide how hot, cold, wet, or windy it might be!

Date:

Astronomy

Jan. 07, 2014 Rise Set
Actual Time 7:22 AM EST 4:36 PM EST
Civil Twilight 6:50 AM EST 5:08 PM EST
Nautical Twilight 6:15 AM EST 5:43 PM EST
Astronomical Twilight 5:41 AM EST 6:17 PM EST
Moon 11:00 AM EST (1/7) No Moon Set
Length of Visible Light 10h 17m
Length of Day
9h 14m
Waxing Crescent, 45% of the Moon is Illuminated
Jan 7
Waxing Crescent
Jan 7
First Quarter
Jan 15
Full
Jan 24
Last Quarter
Jan 30
New

Hourly Weather History & Observations

Time (EST) Temp. Windchill Dew Point Humidity Pressure Visibility Wind Dir Wind Speed Gust Speed Precip Events Conditions
12:21 AM 8.6 °F -7.7 °F -0.4 °F 67% 29.56 in 2.5 mi NW 13.8 mph 29.9 mph 0.00 in Snow Light Snow
12:25 AM 8.6 °F -9.5 °F -0.4 °F 67% 29.56 in 4.0 mi WNW 17.3 mph 28.8 mph 0.00 in Snow Light Snow
12:54 AM 8.1 °F -7.7 °F -5.1 °F 55% 29.64 in 10.0 mi NW 12.7 mph 21.9 mph 0.00 in   Overcast
1:54 AM 8.1 °F -9.0 °F -5.1 °F 55% 29.67 in 10.0 mi NW 15.0 mph 23.0 mph N/A   Overcast
2:54 AM 6.1 °F -13.3 °F -7.1 °F 55% 29.70 in 10.0 mi WNW 18.4 mph 25.3 mph N/A   Overcast
3:54 AM 3.9 °F -10.4 °F -9.0 °F 55% 29.74 in 10.0 mi West 9.2 mph 27.6 mph N/A   Mostly Cloudy
4:54 AM 3.9 °F -18.1 °F -9.0 °F 55% 29.77 in 10.0 mi West 23.0 mph 34.5 mph N/A   Overcast
5:54 AM 3.0 °F -17.3 °F -9.0 °F 57% 29.81 in 10.0 mi West 18.4 mph 28.8 mph N/A   Overcast
6:54 AM 1.9 °F -19.8 °F -9.0 °F 60% 29.84 in 10.0 mi West 20.7 mph 26.5 mph N/A   Overcast
7:54 AM 1.0 °F -20.4 °F -9.9 °F 60% 29.89 in 10.0 mi West 19.6 mph - N/A   Overcast
8:54 AM 1.0 °F -19.3 °F -11.0 °F 57% 29.95 in 10.0 mi West 17.3 mph 28.8 mph N/A   Overcast
9:54 AM 1.9 °F -18.7 °F -11.0 °F 55% 29.99 in 10.0 mi West 18.4 mph 27.6 mph N/A   Overcast
10:54 AM 3.0 °F -17.3 °F -11.0 °F 52% 30.00 in 10.0 mi WSW 18.4 mph 26.5 mph N/A   Overcast
11:54 AM 3.0 °F -14.8 °F -9.9 °F 55% 30.00 in 10.0 mi West 13.8 mph 29.9 mph N/A   Overcast
12:54 PM 3.0 °F -18.3 °F -11.9 °F 50% 30.01 in 10.0 mi West 20.7 mph 27.6 mph N/A   Overcast
1:54 PM 3.0 °F -18.3 °F -11.0 °F 52% 30.03 in 10.0 mi West 20.7 mph 27.6 mph N/A   Mostly Cloudy
2:54 PM 3.0 °F -16.1 °F -11.9 °F 50% 30.05 in 10.0 mi WNW 16.1 mph 24.2 mph N/A   Mostly Cloudy
3:54 PM 3.0 °F -17.3 °F -13.0 °F 47% 30.09 in 10.0 mi West 18.4 mph 24.2 mph N/A   Partly Cloudy
4:54 PM 1.9 °F -14.7 °F -13.0 °F 50% 30.11 in 10.0 mi West 11.5 mph 21.9 mph N/A   Clear
5:54 PM 1.9 °F -16.2 °F -13.0 °F 50% 30.14 in 10.0 mi West 13.8 mph 24.2 mph N/A   Clear
6:54 PM 1.9 °F -16.2 °F -13.0 °F 50% 30.17 in 10.0 mi West 13.8 mph - N/A   Clear
7:54 PM 1.9 °F -16.2 °F -13.0 °F 50% 30.18 in 10.0 mi West 13.8 mph - N/A   Clear
8:54 PM 1.9 °F -11.8 °F -11.9 °F 52% 30.21 in 10.0 mi WSW 8.1 mph - N/A   Clear
9:54 PM 1.0 °F -14.9 °F -11.0 °F 57% 30.23 in 10.0 mi WSW 10.4 mph - N/A   Clear
10:54 PM 1.9 °F -14.7 °F -11.0 °F 55% 30.23 in 10.0 mi WSW 11.5 mph - N/A   Clear
11:54 PM 1.9 °F -15.5 °F -9.9 °F 58% 30.25 in 10.0 mi WSW 12.7 mph - N/A   Clear